^^
Station Historical Data
 
Daily Summary for January 16, 2019 Units:  Metric    English   Both
« Previous Day
Next Day »
Daily Weekly Monthly Yearly Custom
  Current: High: Low: Average:
Temperature: 32.3 °C -17.8 °C 20.9 °C 24.9 °C
Dew Point: 4.1 °C -17.8 °C 3.2 °C 5.8 °C
Humidity: 17% Humidity% 16% 30%
Wind Speed: 13km/h 0km/h 4.7km/h 14km/h
Wind Gust: 24.1km/h 0km/h - -
WindSW - - SSW
Pressure: 1006.7 hPa 0 hPa 1006.7 hPa -
Precipitation: 0 mm      
Historical Graphs
 
 
Tabular Data for January 16, 2019
Time Temperature Dew Point Pressure Wind Wind Speed Wind Gust Humidity Rainfall Rate (Hourly) solar Conditions
-17.8 °C -17.8 °C 0 hPa Calm     Humidity% 0 mm SolarRadiationWatts/m^2 W/m2 Conditions
00:04 26.2 °C 5.7 °C 1007.3 hPa SSW 17.7 km/h 17.7 km/h 27% 0 mm 0.00 W/m2
00:08 26.2 °C 5.7 °C 1007.7 hPa SSW 13 km/h 20.9 km/h 27% 0 mm 0.00 W/m2
00:14 26.1 °C 5.6 °C 1007.7 hPa SSW 11.1 km/h 16.1 km/h 27% 0 mm 0.00 W/m2
00:18 26.1 °C 5.6 °C 1007.7 hPa SSW 14.3 km/h 17.7 km/h 27% 0 mm 0.00 W/m2
00:24 25.9 °C 6 °C 1007.7 hPa SSW 19.5 km/h 20.9 km/h 28% 0 mm 0.00 W/m2
00:28 25.8 °C 5.9 °C 1007.7 hPa SSW 14.3 km/h 16.1 km/h 28% 0 mm 0.00 W/m2
00:34 25.7 °C 5.8 °C 1007.7 hPa SSW 14.3 km/h 16.1 km/h 28% 0 mm 0.00 W/m2
00:38 25.6 °C 5.7 °C 1007.7 hPa SSW 14.3 km/h 17.7 km/h 28% 0 mm 0.00 W/m2
00:44 25.4 °C 6.1 °C 1007.7 hPa SSW 13 km/h 14.5 km/h 29% 0 mm 0.00 W/m2
00:48 25.3 °C 6 °C 1007.7 hPa SSW 16.3 km/h 19.3 km/h 29% 0 mm 0.00 W/m2
00:54 25.2 °C 5.9 °C 1007.7 hPa SSW 14.3 km/h 17.7 km/h 29% 0 mm 0.00 W/m2
00:58 25.2 °C 5.9 °C 1007.7 hPa SSW 16.3 km/h 19.3 km/h 29% 0 mm 0.00 W/m2
01:02 25.1 °C 5.8 °C 1007.7 hPa SSW 17.7 km/h 19.3 km/h 29% 0 mm 0.00 W/m2
01:08 25 °C 5.7 °C 1007.7 hPa SSW 13 km/h 20.9 km/h 29% 0 mm 0.00 W/m2
01:13 24.9 °C 6.1 °C 1007.7 hPa SSW 14.3 km/h 20.9 km/h 30% 0 mm 0.00 W/m2
01:19 24.8 °C 6 °C 1007.7 hPa SSW 13 km/h 17.7 km/h 30% 0 mm 0.00 W/m2
01:23 24.8 °C 6 °C 1007.3 hPa SSW 13 km/h 20.9 km/h 30% 0 mm 0.00 W/m2
01:29 24.8 °C 6 °C 1007.3 hPa SSW 17.7 km/h 20.9 km/h 30% 0 mm 0.00 W/m2
01:33 24.7 °C 6 °C 1007.3 hPa SSW 14.3 km/h 19.3 km/h 30% 0 mm 0.00 W/m2
01:39 24.7 °C 6 °C 1007.3 hPa SSW 17.7 km/h 20.9 km/h 30% 0 mm 0.00 W/m2
01:43 24.6 °C 5.9 °C 1007.3 hPa SSW 20.9 km/h 22.5 km/h 30% 0 mm 0.00 W/m2
01:49 24.7 °C 6 °C 1007.3 hPa SSW 14.3 km/h 24.1 km/h 30% 0 mm 0.00 W/m2
01:53 24.6 °C 5.9 °C 1007.3 hPa SSW 17.7 km/h 19.3 km/h 30% 0 mm 0.00 W/m2
01:59 24.7 °C 6 °C 1007.3 hPa SSW 17.7 km/h 20.9 km/h 30% 0 mm 0.00 W/m2
02:03 24.6 °C 5.9 °C 1007.3 hPa SSW 16.3 km/h 19.3 km/h 30% 0 mm 0.00 W/m2
02:09 24.6 °C 5.9 °C 1007.7 hPa SSW 11.1 km/h 19.3 km/h 30% 0 mm 0.00 W/m2
02:13 24.5 °C 5.8 °C 1007.3 hPa SSW 17.7 km/h 17.7 km/h 30% 0 mm 0.00 W/m2
02:19 24.3 °C 6.1 °C 1007.3 hPa SSW 16.3 km/h 17.7 km/h 31% 0 mm 0.00 W/m2
02:23 24.2 °C 6 °C 1007.3 hPa SSW 14.3 km/h 17.7 km/h 31% 0 mm 0.00 W/m2
02:29 24.1 °C 5.9 °C 1007.3 hPa SSW 14.3 km/h 17.7 km/h 31% 0 mm 0.00 W/m2
02:33 24.1 °C 5.9 °C 1007.3 hPa SSW 14.3 km/h 17.7 km/h 31% 0 mm 0.00 W/m2
02:38 24 °C 5.8 °C 1007.3 hPa SSW 13 km/h 19.3 km/h 31% 0 mm 0.00 W/m2
02:44 23.9 °C 5.7 °C 1007.3 hPa SSW 14.3 km/h 17.7 km/h 31% 0 mm 0.00 W/m2
02:48 23.9 °C 6.2 °C 1007.3 hPa SSW 9.7 km/h 16.1 km/h 32% 0 mm 0.00 W/m2
02:54 23.8 °C 6.1 °C 1007.3 hPa SSW 11.1 km/h 14.5 km/h 32% 0 mm 0.00 W/m2
02:58 23.7 °C 6 °C 1007.3 hPa SSW 11.1 km/h 12.9 km/h 32% 0 mm 0.00 W/m2
03:02 23.6 °C 5.9 °C 1007.3 hPa SSW 13 km/h 16.1 km/h 32% 0 mm 0.00 W/m2
03:09 23.4 °C 6.2 °C 1007.3 hPa SSW 9.7 km/h 14.5 km/h 33% 0 mm 0.00 W/m2
03:13 23.3 °C 6.1 °C 1007.3 hPa SSW 11.1 km/h 17.7 km/h 33% 0 mm 0.00 W/m2
03:19 23.2 °C 6 °C 1007.3 hPa SSW 9.7 km/h 12.9 km/h 33% 0 mm 0.00 W/m2
03:23 23.1 °C 5.9 °C 1007.3 hPa SSW 13 km/h 16.1 km/h 33% 0 mm 0.00 W/m2
03:29 23.1 °C 5.9 °C 1007.3 hPa SSW 14.3 km/h 14.5 km/h 33% 0 mm 0.00 W/m2
03:33 23 °C 6.3 °C 1007.3 hPa SSW 11.1 km/h 14.5 km/h 34% 0 mm 0.00 W/m2
03:39 22.9 °C 6.2 °C 1007.3 hPa SSW 9.7 km/h 14.5 km/h 34% 0 mm 0.00 W/m2
03:43 22.8 °C 6.1 °C 1007.3 hPa SSW 7.9 km/h 14.5 km/h 34% 0 mm 0.00 W/m2
03:49 22.7 °C 6 °C 1007.3 hPa SSW 7.9 km/h 14.5 km/h 34% 0 mm 0.00 W/m2
03:53 22.7 °C 6 °C 1007.3 hPa SSW 13 km/h 17.7 km/h 34% 0 mm 0.00 W/m2
03:58 22.7 °C 6 °C 1007.3 hPa SSW 13 km/h 17.7 km/h 34% 0 mm 0.00 W/m2
04:04 22.6 °C 6.4 °C 1007 hPa SSW 13 km/h 16.1 km/h 35% 0 mm 0.00 W/m2
04:08 22.6 °C 6.4 °C 1007 hPa SSW 14.3 km/h 16.1 km/h 35% 0 mm 0.00 W/m2
04:14 22.5 °C 6.3 °C 1007.3 hPa SSW 11.1 km/h 17.7 km/h 35% 0 mm 0.00 W/m2
04:18 22.4 °C 6.2 °C 1007.3 hPa SSW 9.7 km/h 16.1 km/h 35% 0 mm 0.00 W/m2
04:24 22.3 °C 6.1 °C 1007 hPa SSW 11.1 km/h 16.1 km/h 35% 0 mm 0.00 W/m2
04:28 22.3 °C 6.5 °C 1007 hPa SSW 16.3 km/h 17.7 km/h 36% 0 mm 0.00 W/m2
04:34 22.2 °C 6.4 °C 1007 hPa SSW 14.3 km/h 17.7 km/h 36% 0 mm 0.00 W/m2
04:38 22.2 °C 6.4 °C 1007 hPa SSW 11.1 km/h 16.1 km/h 36% 0 mm 0.00 W/m2
04:43 22.2 °C 6.4 °C 1007 hPa SSW 14.3 km/h 16.1 km/h 36% 0 mm 0.00 W/m2
04:49 22.1 °C 6.7 °C 1007 hPa SSW 11.1 km/h 19.3 km/h 37% 0 mm 0.00 W/m2
04:53 22.1 °C 6.7 °C 1007 hPa SSW 14.3 km/h 17.7 km/h 37% 0 mm 0.00 W/m2
04:59 22 °C 6.6 °C 1007 hPa SSW 19.5 km/h 19.3 km/h 37% 0 mm 0.00 W/m2
05:03 22 °C 6.6 °C 1007 hPa SSW 13 km/h 17.7 km/h 37% 0 mm 0.00 W/m2
05:09 22 °C 6.6 °C 1007 hPa SSW 17.7 km/h 19.3 km/h 37% 0 mm 0.00 W/m2
05:13 22 °C 6.6 °C 1007 hPa SSW 13 km/h 16.1 km/h 37% 0 mm 0.00 W/m2
05:19 21.9 °C 6.5 °C 1007.3 hPa SSW 9.7 km/h 14.5 km/h 37% 0 mm 0.00 W/m2
05:23 21.9 °C 6.5 °C 1007.3 hPa SSW 9.7 km/h 12.9 km/h 37% 0 mm 0.00 W/m2
05:29 21.7 °C 6.4 °C 1007 hPa SSW 6.4 km/h 11.3 km/h 37% 0 mm 0.00 W/m2
05:33 21.6 °C 6.3 °C 1007 hPa SSW 6.4 km/h 8 km/h 37% 0 mm 0.00 W/m2
05:37 21.4 °C 6.5 °C 1007 hPa SSW 4.7 km/h 8 km/h 38% 0 mm 0.00 W/m2
05:44 21.2 °C 6.7 °C 1007.3 hPa SSW 7.9 km/h 9.7 km/h 39% 0 mm 0.00 W/m2
05:48 21.2 °C 6.7 °C 1007.3 hPa SSW 6.4 km/h 8 km/h 39% 0 mm 0.00 W/m2
05:54 21.2 °C 6.7 °C 1007.3 hPa SSW 7.9 km/h 12.9 km/h 39% 0 mm 0.00 W/m2
05:58 21.3 °C 6.8 °C 1007.3 hPa SSW 7.9 km/h 11.3 km/h 39% 0 mm 0.00 W/m2
06:04 21.2 °C 6.7 °C 1007.3 hPa SSW 7.9 km/h 12.9 km/h 39% 0 mm 0.00 W/m2
06:08 21.2 °C 6.7 °C 1007.3 hPa SSW 6.4 km/h 11.3 km/h 39% 0 mm 5.00 W/m2
06:13 21.1 °C 6.6 °C 1007.3 hPa SSW 7.9 km/h 11.3 km/h 39% 0 mm 7.00 W/m2
06:19 21 °C 6.5 °C 1007.3 hPa SSW 11.1 km/h 12.9 km/h 39% 0 mm 11.00 W/m2
06:23 20.9 °C 6.4 °C 1007.3 hPa SSW 9.7 km/h 12.9 km/h 39% 0 mm 12.00 W/m2
06:29 21 °C 6.5 °C 1007.3 hPa SSW 9.7 km/h 12.9 km/h 39% 0 mm 16.00 W/m2
06:33 21 °C 6.5 °C 1007.3 hPa SSW 7.9 km/h 11.3 km/h 39% 0 mm 23.00 W/m2
06:39 21.1 °C 6.6 °C 1007.3 hPa SSW 9.7 km/h 14.5 km/h 39% 0 mm 39.00 W/m2
06:43 21.2 °C 6.7 °C 1007.3 hPa SSW 11.1 km/h 11.3 km/h 39% 0 mm 47.00 W/m2
06:48 21.3 °C 6.8 °C 1007.3 hPa SSW 9.7 km/h 12.9 km/h 39% 0 mm 58.00 W/m2
06:54 21.5 °C 7 °C 1007.3 hPa SSW 9.7 km/h 11.3 km/h 39% 0 mm 76.00 W/m2
06:58 21.6 °C 6.7 °C 1007.3 hPa SSW 11.1 km/h 12.9 km/h 38% 0 mm 90.00 W/m2
07:04 21.9 °C 6.9 °C 1007.3 hPa SSW 9.7 km/h 11.3 km/h 38% 0 mm 113.00 W/m2
07:08 22.1 °C 6.7 °C 1007.3 hPa SSW 9.7 km/h 14.5 km/h 37% 0 mm 127.00 W/m2
07:14 22.4 °C 7 °C 1007.3 hPa SSW 9.7 km/h 12.9 km/h 37% 0 mm 149.00 W/m2
07:18 22.6 °C 6.8 °C 1007.3 hPa SW 9.7 km/h 17.7 km/h 36% 0 mm 167.00 W/m2
07:23 22.8 °C 6.9 °C 1007.3 hPa SW 17.7 km/h 19.3 km/h 36% 0 mm 183.00 W/m2
07:27 23 °C 7.1 °C 1007.3 hPa SW 13 km/h 20.9 km/h 36% 0 mm 200.00 W/m2
07:33 23.1 °C 6.8 °C 1007.3 hPa SW 17.7 km/h 22.5 km/h 35% 0 mm 220.00 W/m2
07:37 23.3 °C 7 °C 1007.3 hPa SW 20.9 km/h 22.5 km/h 35% 0 mm 234.00 W/m2
07:43 23.4 °C 7.1 °C 1007.7 hPa SW 20.9 km/h 22.5 km/h 35% 0 mm 255.00 W/m2
07:47 23.6 °C 6.8 °C 1007.7 hPa SW 20.9 km/h 24.1 km/h 34% 0 mm 267.00 W/m2
07:53 23.8 °C 7 °C 1007.7 hPa SW 16.3 km/h 25.7 km/h 34% 0 mm 288.00 W/m2
08:03 24.2 °C 6.9 °C 1008 hPa SW 19.5 km/h 20.9 km/h 33% 0 mm 322.00 W/m2
08:07 24.3 °C 7 °C 1007.7 hPa SW 19.5 km/h 24.1 km/h 33% 0 mm 334.00 W/m2
08:13 24.4 °C 6.6 °C 1008 hPa SW 17.7 km/h 22.5 km/h 32% 0 mm 355.00 W/m2
08:18 24.6 °C 6.8 °C 1008 hPa SW 16.3 km/h 22.5 km/h 32% 0 mm 371.00 W/m2
08:24 24.8 °C 6.5 °C 1008 hPa SW 19.5 km/h 22.5 km/h 31% 0 mm 390.00 W/m2
08:34 25.3 °C 6.5 °C 1008 hPa SW 19.5 km/h 24.1 km/h 30% 0 mm 422.00 W/m2
08:38 25.4 °C 6.6 °C 1008 hPa SW 22.7 km/h 24.1 km/h 30% 0 mm 434.00 W/m2
08:44 25.7 °C 6.3 °C 1008 hPa SW 19.5 km/h 22.5 km/h 29% 0 mm 454.00 W/m2
08:48 25.8 °C 6.4 °C 1008 hPa SW 14.3 km/h 22.5 km/h 29% 0 mm 468.00 W/m2
08:54 26 °C 6.6 °C 1008 hPa SW 20.9 km/h 24.1 km/h 29% 0 mm 487.00 W/m2
08:58 26.2 °C 6.8 °C 1008 hPa WSW 20.9 km/h 22.5 km/h 29% 0 mm 503.00 W/m2
09:04 26.5 °C 6.5 °C 1008 hPa SW 20.9 km/h 22.5 km/h 28% 0 mm 520.00 W/m2
09:08 26.6 °C 6.6 °C 1008 hPa SW 14.3 km/h 19.3 km/h 28% 0 mm 533.00 W/m2
09:12 26.7 °C 6.7 °C 1008 hPa SW 13 km/h 22.5 km/h 28% 0 mm 548.00 W/m2
09:19 26.9 °C 6.3 °C 1007.7 hPa SW 16.3 km/h 24.1 km/h 27% 0 mm 566.00 W/m2
09:23 27.1 °C 6.5 °C 1008 hPa SW 16.3 km/h 22.5 km/h 27% 0 mm 580.00 W/m2
09:29 27.3 °C 6.7 °C 1007.7 hPa SW 16.3 km/h 17.7 km/h 27% 0 mm 598.00 W/m2
09:33 27.5 °C 6.3 °C 1007.7 hPa SW 11.1 km/h 20.9 km/h 26% 0 mm 612.00 W/m2
09:39 27.9 °C 6.6 °C 1007.7 hPa SW 20.9 km/h 22.5 km/h 26% 0 mm 629.00 W/m2
09:43 28.1 °C 6.2 °C 1007.7 hPa SW 16.3 km/h 24.1 km/h 25% 0 mm 638.00 W/m2
09:49 28.3 °C 6.4 °C 1007.7 hPa SW 17.7 km/h 20.9 km/h 25% 0 mm 656.00 W/m2
09:54 28.4 °C 5.9 °C 1007.7 hPa SW 19.5 km/h 20.9 km/h 24% 0 mm 670.00 W/m2
09:58 28.7 °C 6.1 °C 1007.3 hPa SW 22.7 km/h 22.5 km/h 24% 0 mm 684.00 W/m2
10:04 28.8 °C 6.2 °C 1007.3 hPa SW 20.9 km/h 24.1 km/h 24% 0 mm 700.00 W/m2
10:08 29.1 °C 5.9 °C 1007.3 hPa SW 19.5 km/h 24.1 km/h 23% 0 mm 708.00 W/m2
10:14 29.2 °C 5.9 °C 1007.3 hPa SW 17.7 km/h 25.7 km/h 23% 0 mm 728.00 W/m2
10:18 29.1 °C 5.9 °C 1007.3 hPa SW 22.7 km/h 27.4 km/h 23% 0 mm 735.00 W/m2
10:24 29.4 °C 6.1 °C 1007.3 hPa SSW 17.7 km/h 22.5 km/h 23% 0 mm 749.00 W/m2
10:28 29.8 °C 5.8 °C 1007.3 hPa SW 20.9 km/h 40.2 km/h 22% 0 mm 761.00 W/m2
10:32 29.8 °C 5.1 °C 1007.3 hPa SW 13 km/h 20.9 km/h 21% 0 mm 772.00 W/m2
10:39 29.7 °C 5 °C 1007.3 hPa SW 17.7 km/h 20.9 km/h 21% 0 mm 786.00 W/m2
10:43 30 °C 5.3 °C 1007.3 hPa SSW 16.3 km/h 22.5 km/h 21% 0 mm 795.00 W/m2
10:49 30.2 °C 5.5 °C 1007.3 hPa SW 13 km/h 24.1 km/h 21% 0 mm 810.00 W/m2
10:53 30.6 °C 4.3 °C 1007.3 hPa SSW 11.1 km/h 20.9 km/h 19% 0 mm 819.00 W/m2
10:59 30.7 °C 4.4 °C 1007.3 hPa SW 19.5 km/h 24.1 km/h 19% 0 mm 831.00 W/m2
11:03 30.6 °C 4.3 °C 1007.3 hPa SW 20.9 km/h 20.9 km/h 19% 0 mm 837.00 W/m2
11:09 30.8 °C 4.5 °C 1007.3 hPa SW 20.9 km/h 22.5 km/h 19% 0 mm 853.00 W/m2
11:13 30.7 °C 5.2 °C 1007.3 hPa SW 9.7 km/h 20.9 km/h 20% 0 mm 856.00 W/m2
11:19 31.1 °C 4.8 °C 1007.3 hPa SW 24.1 km/h 24.1 km/h 19% 0 mm 868.00 W/m2
11:23 31.2 °C 4.1 °C 1007.3 hPa SSW 11.1 km/h 19.3 km/h 18% 0 mm 877.00 W/m2
11:29 31.3 °C 4.1 °C 1007.3 hPa SW 14.3 km/h 20.9 km/h 18% 0 mm 886.00 W/m2
11:33 31.3 °C 4.1 °C 1007.3 hPa SSW 11.1 km/h 17.7 km/h 18% 0 mm 891.00 W/m2
11:38 31.3 °C 4.1 °C 1007.3 hPa SW 7.9 km/h 24.1 km/h 18% 0 mm 898.00 W/m2
11:44 31.8 °C 4.6 °C 1007.3 hPa SW 16.3 km/h 16.1 km/h 18% 0 mm 907.00 W/m2
11:48 31.9 °C 3.8 °C 1007.3 hPa SW 16.3 km/h 19.3 km/h 17% 0 mm 911.00 W/m2
11:54 31.7 °C 3.7 °C 1007 hPa SW 6.4 km/h 14.5 km/h 17% 0 mm 919.00 W/m2
11:58 32.1 °C 4 °C 1007 hPa SW 20.9 km/h 22.5 km/h 17% 0 mm 923.00 W/m2
12:04 32.2 °C 4.1 °C 1007 hPa SW 11.1 km/h 24.1 km/h 17% 0 mm 932.00 W/m2
12:08 32.1 °C 4 °C 1007 hPa SW 14.3 km/h 19.3 km/h 17% 0 mm 937.00 W/m2
12:14 32.2 °C 3.2 °C 1006.7 hPa SW 6.4 km/h 17.7 km/h 16% 0 mm 939.00 W/m2
12:18 32.3 °C 4.1 °C 1006.7 hPa SW 13 km/h 24.1 km/h 17% 0 mm 942.00 W/m2
Canyon Roadhouse, Fishriver Canyon, Namibia
Compliments of Weather Underground - 2.5 mb